Location: *
(58.7167°N, 26.1833°E)
Time: 21:50:31
(UTC+00:00)

RESURS DK-1 - Pass Details

Date: 25 August 2019
Orbit: 556 x 562 km, 69.9° (Epoch: 18 September)

Event Time Altitude Azimuth Distance (km) Brightness Sun altitude
Rises 23:23:29 0° 318° (NW) 2,768 6.3 -19.4°
Reaches altitude 10° 23:25:48 10° 325° (NW) 1,868 5.5 -19.3°
Maximum altitude 23:29:48 44° 38° (NE) 794 3.5 -19.2°
Drops below altitude 10° 23:33:47 10° 112° (ESE) 1,856 5.0 -19.0°
Sets 23:36:04 0° 119° (ESE) 2,747 5.8 -18.9°
